Location: Miles
(41.4492°N, 81.6087°W)
Time: 21:43:36
(UTC+00:00)

Courier 1B Rocket - Pass Details

Date: 22 September 2024
Orbit: 920 x 1201 km, 28.2° (Epoch: 09 October)

Event Time Altitude Azimuth Distance (km) Brightness Sun altitude
Rises 19:54:19 0° 244° (WSW) 3,553 8.9 35.6°
Reaches altitude 10° 19:57:21 10° 231° (SW) 2,626 8.7 35.2°
Maximum altitude 20:02:20 25° 178° (S) 1,823 7.2 34.4°
Drops below altitude 10° 20:07:30 10° 126° (SE) 2,735 7.3 33.7°
Sets 20:10:43 0° 114° (ESE) 3,732 7.8 33.2°
